Location: Cluj-Napoca
(46.7712°N, 23.6236°E)
Time: 06:57:23
(UTC+03:00)

ISS - Pass Details

Date: 03 April 2020
Orbit: 417 x 423 km, 51.6° (Epoch: 29 March)

Event Time Altitude Azimuth Distance (km) Brightness Sun altitude
Rises 22:01:59 0° 288° (WNW) 2,361 1.4 -20.5°
Reaches altitude 10° 22:04:31 10° 269° (W) 1,494 -0.2 -20.9°
Maximum altitude 22:06:54 18° 223° (SW) 1,091 -1.6 -21.2°
Enters shadow 22:06:59 18° 221° (SW) 1,092 -1.6 -21.2°
